Regional Weather Roundup
Issued by NWS Albany, NY

Home | Current Version | Previous Version | Text Only | Print | Product List | Glossary On
Versions: 1 2 3 4 5 6 7 8 9 10 11 12 13 14 15 16 17 18 19 20 21 22 23 24 25 26 27 28 29 30 31 32 33 34 35 36 37 38 39 40 41 42 43 44 45 46 47
000
ASUS41 KALY 301410
RWRALY

NEW YORK STATE HOURLY WEATHER ROUNDUP
NATIONAL WEATHER SERVICE ALBANY NY
900 AM EST FRI JAN 30 2015

NOTE: "FAIR" INDICATES FEW OR NO CLOUDS BELOW 12,000 FEET WITH NO
SIGNIFICANT WEATHER AND/OR NO OBSTRUCTIONS TO VISIBILITY.

NYZ032-033-038>043-046>054-057>066-NYZ062>081-301500-
EAST


CITY           SKY/WX    TMP DP  RH WIND       PRES   REMARKS
ALBANY         SNOW      28  25  88 S5        29.85R VSB 1/2 WCI  23
GLENS FALLS    LGT SNOW  27  24  89 SW3       29.82S FOG
POUGHKEEPSIE   LGT SNOW  29  25  85 CALM      29.85S FOG
NEWBURGH       LGT SNOW  27  25  93 W12       29.85R WCI  16
MONTGOMERY     LGT SNOW  28  25  88 SW6       29.84R FOG     WCI  22
WHITE PLAINS   LGT SNOW  30  26  85 W9        29.83  FOG     WCI  22
ISLIP          LGT SNOW  33  29  85 W9        29.82S FOG     WCI  25
NEW YORK CITY  LGT SNOW  33  26  75 W13G21    29.87R WCI  24
CENTRAL PARK   LGT SNOW  32  26  78 VRB7      29.89R WCI  26
$$

NYZ005>009-017-018-044>046-055-056-301500-
CENTRAL


CITY           SKY/WX    TMP DP  RH WIND       PRES   REMARKS
FULTON         CLOUDY    26  18  71 NW15G22   29.96R WCI  14
SYRACUSE       SNOW      22  22 100 NW16      29.94R VSB 1/2 WCI   8
ROME           CLOUDY    25  20  81 NW14      29.91R WCI  13
ELMIRA         LGT SNOW  28  23  81 W9        29.93R WCI  19
BINGHAMTON     LGT SNOW  24  21  88 N9G22     29.85R VSB 1   WCI  14
MONTICELLO     CLOUDY    25  23  93 W9        29.81R WCI  15
$$

NYZ026>034-041>043-301500-
NORTH


CITY           SKY/WX    TMP DP  RH WIND       PRES   REMARKS
WATERTOWN      LGT SNOW  22  15  75 N15       29.99R WCI   9
FORT DRUM      NOT AVBL
MASSENA        LGT SNOW  20  16  84 NW20G26   29.94R FOG     WCI   4
SARANAC LAKE   LGT SNOW  20  17  88 VRB6      29.76R FOG     WCI  12
PLATTSBURGH    LGT SNOW  27  25  92 CALM      29.82R FOG
$$

NYZ001>004-010>016-019>021-301500-
WEST


CITY           SKY/WX    TMP DP  RH WIND       PRES   REMARKS
NIAGARA FALLS  LGT SNOW  17  11  77 NW22G29   30.09R BLWGSNOWWCI   0
BUFFALO        LGT SNOW  18  12  77 NW22G35   30.07R BLWGSNOWWCI   1
DUNKIRK        LGT SNOW  18  13  80 NW18G26   30.13R WCI   2
JAMESTOWN      CLOUDY    18  12  79 NW17G26   30.01R VSB 3/4 WCI   2
WELLSVILLE     LGT SNOW  22  18  85 NW16G25   29.91R FOG     WCI   8
ROCHESTER      LGT SNOW  23  18  81 NW17G28   30.02R WCI   9
PENN YAN       LGT SNOW  27  21  78 NW13      29.95R WCI  16
$$

             KEY
       WCI = WIND CHILL INDEX
       VSB = VISIBILITY
       HX  = HEAT INDEX
$$


USA.gov is the U.S. government's official web portal to all federal, state and local government web resources and services.